Location: Copeville
(33.0796°N, 96.4155°W)
Time: 12:32:09
(UTC+00:00)

Cosmos 1805 Rocket - Pass Details

Date: 12 July 2022
Orbit: 605 x 629 km, 82.5° (Epoch: 12 August)

Event Time Altitude Azimuth Distance (km) Brightness Sun altitude
Exits shadow 09:40:08 17° 289° (WNW) 1,573 5.4 -18.9°
Drops below altitude 10° 09:42:43 10° 326° (NW) 1,977 6.2 -18.5°
Sets 09:45:38 0° 346° (NNW) 2,882 7.4 -18.1°
